Anderson, SC

4:30 AM EDT on September 28, 2016 (GMT -0400)
Anderson Regional

Weather History for KAND - July, 2013

Change the Weather History Date:

Sunday, July 28, 2013

  Actual Average Record
Temperature  
Mean Temperature 77 °F -  
Max Temperature 87 °F 90 °F 106 °F (1952)
Min Temperature 68 °F 70 °F 61 °F (1962)
Cooling Degree Days 12    
Growing Degree Days 27 (Base 50)    
Moisture  
Dew Point 70 °F    
Average Humidity 87    
Maximum Humidity 100    
Minimum Humidity 57    
Precipitation  
Precipitation 0.55 in - - ()
Sea Level Pressure  
Sea Level Pressure 29.97 in    
Wind  
Wind Speed 3 mph (SW)    
Max Wind Speed 31 mph    
Max Gust Speed 37 mph    
Visibility 6 miles    
Events Fog , Rain , Thunderstorm    
Averages and records for this station are not official NWS values.
T = Trace of Precipitation, MM = Missing Value Source: NWS Daily Summary

Daily Weather History Graph

Daily Weather History Graph

Search for Another Location

Airport or City:

Trip Planner

Search our weather history database for the weather conditions in past years. The results will help you decide how hot, cold, wet, or windy it might be!

Date:

Astronomy

Jul. 28, 2013 Rise Set
Actual Time 6:38 AM EDT 8:35 PM EDT
Civil Twilight 6:10 AM EDT 9:03 PM EDT
Nautical Twilight 5:36 AM EDT 9:37 PM EDT
Astronomical Twilight 5:00 AM EDT 10:13 PM EDT
Moon No Moon Rise 12:59 PM EDT
Length of Visible Light 14h 52m
Length of Day
13h 57m
Waning Gibbous, 61% of the Moon is Illuminated
Jul 28
Waning Gibbous
Jul 29
Last Quarter
Aug 6
New
Aug 14
First Quarter
Aug 20
Full

Hourly Weather History & Observations

Time (EDT) Temp. Heat Index Dew Point Humidity Pressure Visibility Wind Dir Wind Speed Gust Speed Precip Events Conditions
12:00 AM 71.6 °F - 71.6 °F 100% 29.96 in 3.0 mi Calm Calm - N/A   Mostly Cloudy
12:46 AM 71.6 °F - 71.6 °F 100% 29.95 in 2.5 mi Calm Calm - N/A   Scattered Clouds
12:56 AM 72.0 °F - 71.1 °F 97% 29.92 in 2.5 mi Calm Calm - N/A   Scattered Clouds
1:13 AM 71.6 °F - 71.6 °F 100% 29.95 in 3.0 mi Calm Calm - N/A   Partly Cloudy
1:56 AM 71.1 °F - 70.0 °F 96% 29.92 in 5.0 mi SW 3.5 mph - N/A   Clear
2:56 AM 71.1 °F - 70.0 °F 96% 29.91 in 7.0 mi Calm Calm - N/A   Clear
3:56 AM 70.0 °F - 69.1 °F 97% 29.91 in 7.0 mi SW 3.5 mph - 0.01 in   Clear
4:56 AM 69.1 °F - 68.0 °F 96% 29.92 in 4.0 mi SSE 4.6 mph - N/A   Clear
5:56 AM 69.1 °F - 68.0 °F 96% 29.94 in 3.0 mi SW 3.5 mph - N/A   Clear
6:16 AM 68.0 °F - 68.0 °F 100% 29.96 in 1.8 mi Calm Calm - N/A   Clear
6:33 AM 68.0 °F - 68.0 °F 100% 29.97 in 2.5 mi SSW 3.5 mph - N/A   Clear
6:41 AM 68.0 °F - 66.2 °F 94% 29.97 in 0.8 mi Calm Calm - N/A   Mist
6:49 AM 68.0 °F - 66.2 °F 94% 29.97 in 0.5 mi Calm Calm - N/A Fog Fog
6:53 AM 68.0 °F - 66.2 °F 94% 29.98 in 1.0 mi Calm Calm - N/A   Partly Cloudy
6:56 AM 68.0 °F - 68.0 °F 100% 29.95 in 1.2 mi SW 3.5 mph - N/A   Partly Cloudy
7:56 AM 70.0 °F - 70.0 °F 100% 29.96 in 2.0 mi SSW 4.6 mph - N/A   Partly Cloudy
8:13 AM 71.6 °F - 69.8 °F 94% 29.99 in 3.0 mi SW 5.8 mph - N/A   Clear
8:45 AM 71.6 °F - 71.6 °F 100% 29.99 in 4.0 mi South 4.6 mph - N/A   Scattered Clouds
8:56 AM 73.0 °F - 71.1 °F 93% 29.97 in 4.0 mi South 4.6 mph - N/A   Scattered Clouds
9:56 AM 75.0 °F - 72.0 °F 90% 29.97 in 7.0 mi SW 4.6 mph - N/A   Mostly Cloudy
10:56 AM 80.1 °F 82.9 °F 69.1 °F 69% 29.97 in 10.0 mi West 6.9 mph - N/A   Clear
11:56 AM 82.9 °F 85.8 °F 68.0 °F 60% 29.98 in 10.0 mi WSW 8.1 mph - N/A   Clear
12:56 PM 84.9 °F 88.2 °F 68.0 °F 57% 29.98 in 10.0 mi WSW 6.9 mph - N/A   Scattered Clouds
1:56 PM 84.9 °F 88.8 °F 69.1 °F 59% 29.97 in 10.0 mi WSW 8.1 mph - N/A   Clear
2:56 PM 86.0 °F 90.1 °F 69.1 °F 57% 29.96 in 10.0 mi WSW 8.1 mph - N/A   Partly Cloudy
3:56 PM 84.9 °F 88.2 °F 68.0 °F 57% 29.94 in 10.0 mi SW 11.5 mph - N/A   Partly Cloudy
4:56 PM 82.9 °F 86.5 °F 69.1 °F 63% 29.94 in 10.0 mi WSW 8.1 mph - N/A   Clear
5:06 PM 82.4 °F 86.3 °F 69.8 °F 66% 29.97 in 10.0 mi WSW 6.9 mph - N/A Thunderstorm Clear
5:28 PM 71.6 °F - 69.8 °F 94% 30.02 in 1.0 mi WNW 31.1 mph 36.8 mph 0.15 in Rain , Thunderstorm Heavy Thunderstorms and Rain
5:30 PM 71.6 °F - 68.0 °F 88% 30.02 in 0.5 mi NW 21.9 mph 36.8 mph 0.30 in Fog , Rain , Thunderstorm Heavy Thunderstorms and Rain
5:42 PM 71.6 °F - 66.2 °F 83% 29.99 in 1.0 mi NNE 3.5 mph - 0.52 in Rain , Thunderstorm Thunderstorms and Rain
5:44 PM 71.6 °F - 68.0 °F 88% 29.99 in 2.0 mi North 4.6 mph - 0.53 in Rain Rain
5:51 PM 73.4 °F - 69.8 °F 88% 29.98 in 6.0 mi ENE 3.5 mph - 0.54 in Rain Light Rain
5:56 PM 75.0 °F - 71.1 °F 87% 29.96 in 10.0 mi Calm Calm - 0.54 in Rain Light Rain
6:56 PM 77.0 °F - 72.0 °F 84% 29.95 in 10.0 mi Calm Calm - N/A   Clear
7:56 PM 77.0 °F - 72.0 °F 84% 29.96 in 10.0 mi SSW 3.5 mph - N/A   Clear
8:56 PM 75.0 °F - 73.0 °F 94% 29.99 in 10.0 mi Calm Calm - N/A   Clear
9:56 PM 73.9 °F - 71.1 °F 91% 30.01 in 10.0 mi SSW 5.8 mph - N/A   Clear
10:56 PM 73.0 °F - 71.1 °F 93% 30.01 in 10.0 mi West 3.5 mph - N/A   Clear
11:56 PM 73.0 °F - 70.0 °F 90% 30.01 in 10.0 mi WNW 3.5 mph - N/A   Clear